logo
Search for airport 
image banner adimage banner adimage banner ad
image banner ad

CA663 - Fitzgerald (Fort Smith) Cej7

Located in , Canada

ICAO - , IATA -

Data provided by Airmate  

General information

Coordinates: N59°51'0" W111°36'0"
Elevation is feet MSL.
 
View others Airports in Northwest Territories

Operational data

Special qualification required
Current time UTC:
Current local time:
Weather at : CYSM - Fort Smith ( 28 km )
METAR: CYSM 241900Z VRB02KT 15SM SKC M28/M31 A3042 RMK SLP339
TAF: TAF CYSM 241152Z 2412/2424 VRB02KT P6SM FEW090 FEW150 TEMPO 2414/2419 BKN090 FM242100 12003KT P6SM SKC BECMG 2422/2424 13005KT RMK NXT FCST BY 241800Z
View NOTAMs / SUP AIP / TFR affecting this airport [VIEW]
Communications frequencies: [VIEW]

Runways:

Airport contact information

Address: Canada

Satellite view of CA663